{"data":{"norad_id":55103,"intl_designator":"2023-001CY","name":"KUWAITSAT-1","alt_names":[],"object_type":"PAYLOAD","status":"ACTIVE","operator":null,"country":"KWT","launch_date":"2023-01-03","launch_site_code":"AFETR","launch_vehicle":null,"mission":null,"orbit_class":"UNKNOWN","rcs_meters":null,"size_class":null,"mass_kg":null,"dimensions":null,"purposes":[],"wikipedia_slug":null,"has_3d_model":false,"image_url":null,"decayed_at":null,"tle_current":{"epoch":"2026-09-21T17:52:39.852480Z","epoch_age_seconds":58352,"freshness":"FRESH","line1":"1 55103U 23001CY  26264.74490570  .00019814  00000+0  31067-3 0  9998","line2":"2 55103  97.3157 337.3014 0009180  81.5276 278.7017 15.53688364207567","mean_motion":15.53688364,"eccentricity":0.000918,"inclination_deg":97.3157,"raan_deg":337.3014,"arg_perigee_deg":81.5276,"mean_anomaly_deg":278.7017,"bstar":0.00031067,"rev_number":20756,"period_min":92.682679060085,"perigee_km":399.74026693745,"apogee_km":412.19588385587,"semimajor_km":6784.1050753967,"source":"CELESTRAK","updated_at":"2026-09-22T09:00:25.270777Z"}}}